Wind_Speed
63 62 61 61 60 60 60 59 59 59 58 58 57 56 55 55 54 53 53 52 51 51 50 50 50 50 49 49 49 49 48 48 48 49 49 49 49 49 49 49 48 48 48 47 47 46 46 46 45 45 44 44 44 44 43 43 43 42 42 42 41 41 41 40 40 40 39 39 39 39 39 39 39 39 38 38 38 38 38 38 38 38 38 38 38 38
62 62 61 61 60 60 60 59 59 59 58 57 56 55 55 54 54 53 53 52 52 52 51 51 51 51 51 51 50 50 50 49 49 49 49 50 50 50 50 50 49 49 49 48 48 48 47 47 46 46 46 45 45 45 44 44 44 44 43 43 43 42 42 41 41 41 41 40 40 40 40 40 40 40 40 40 39 39 39 39 39 39 39 38 38 38
62 61 61 61 60 60 60 59 59 58 57 56 55 54 54 54 54 54 53 53 53 53 53 53 52 52 52 52 52 52 51 51 51 51 51 51 50 50 50 50 50 50 50 50 49 49 48 48 48 47 47 47 46 46 46 45 45 45 45 44 44 44 43 43 42 42 42 41 41 41 41 41 41 41 41 41 41 40 40 40 40 40 40 40 39 39
62 61 61 61 61 60 60 59 58 56 55 54 54 54 55 55 55 54 54 54 54 54 54 54 54 54 54 54 54 54 53 53 53 53 52 52 52 52 51 51 51 51 51 51 51 50 50 49 49 49 48 48 48 47 47 46 46 46 46 46 45 45 45 44 44 43 43 43 42 42 42 42 42 42 42 42 42 42 41 42 42 42 42 41 41 41
62 62 62 61 61 60 59 57 56 55 54 55 55 56 56 56 56 56 56 56 56 56 56 56 56 56 55 55 55 55 55 55 55 55 54 54 54 53 53 52 52 52 52 52 52 52 51 51 50 50 50 49 49 49 48 48 48 47 47 47 47 47 46 46 46 45 45 44 44 43 43 43 43 43 43 43 43 43 43 43 43 43 43 43 43 42
63 62 62 61 59 58 57 56 55 55 56 56 57 57 57 58 58 58 58 58 58 58 58 58 58 58 57 57 57 57 56 56 56 56 56 56 55 55 55 54 54 53 53 53 53 53 53 53 52 52 51 51 50 50 50 50 49 49 49 48 48 48 48 48 47 47 46 46 45 45 44 44 44 44 44 44 44 44 44 44 44 44 44 44 43 43
63 62 60 59 58 56 56 55 56 57 58 58 59 59 59 59 60 60 60 60 60 60 60 60 60 60 59 59 58 58 58 57 57 57 57 57 57 57 57 56 56 55 55 55 54 54 54 54 54 54 54 53 53 52 52 52 51 51 51 50 50 50 50 49 49 49 48 48 47 46 46 45 45 45 45 46 46 46 45 45 45 45 44 44 44 43
62 61 59 58 57 57 57 57 58 59 60 61 61 61 61 61 61 62 62 62 62 62 62 62 62 62 61 61 61 60 60 59 59 58 58 58 58 58 58 58 58 58 57 57 56 56 56 56 57 57 56 56 55 55 54 54 54 53 53 53 52 52 52 51 51 50 50 50 49 49 48 47 47 46 46 47 47 47 46 46 46 45 45 45 45 45
61 60 59 59 59 59 59 60 61 61 62 63 63 63 63 63 63 63 64 64 64 64 64 64 64 64 64 63 63 63 62 62 61 61 60 60 60 60 60 60 60 60 60 59 59 59 59 59 59 59 59 59 58 58 57 57 56 56 56 55 55 54 54 53 53 52 52 51 51 51 50 49 49 48 48 48 48 47 47 47 47 46 46 46 46 46
61 61 61 61 61 62 62 62 63 63 64 64 65 65 65 65 65 65 66 66 66 66 66 67 66 66 66 66 66 66 65 65 64 63 63 62 62 62 62 62 62 62 62 62 62 62 61 61 61 61 61 61 61 61 60 60 59 58 58 58 57 57 56 55 55 54 54 53 53 53 52 52 51 50 50 49 49 49 48 48 48 47 47 47 47 47
63 63 64 64 64 64 65 65 65 66 66 66 67 67 67 67 68 68 68 68 68 68 69 69 69 69 69 69 69 69 68 68 68 67 66 66 65 65 65 64 64 64 64 64 64 64 64 64 64 64 64 64 64 63 63 62 62 61 60 60 59 59 58 58 57 56 56 55 55 54 54 53 53 52 52 51 50 50 50 49 49 49 48 48 48 47
66 66 66 66 67 67 67 67 68 68 68 68 69 69 69 70 70 70 71 71 71 71 71 71 72 72 72 72 72 72 72 71 71 71 70 70 69 69 68 67 67 67 66 66 66 66 66 66 66 66 66 66 66 66 65 65 64 63 63 62 62 61 61 60 59 59 58 57 57 56 56 55 55 54 53 53 52 51 51 51 50 50 49 49 49 49
68 68 69 69 69 69 69 69 70 70 71 71 71 72 72 73 73 73 74 74 74 74 74 74 74 74 74 74 75 75 75 75 74 74 74 73 73 72 72 71 71 70 69 69 69 68 68 68 68 68 68 68 68 68 68 67 67 66 65 64 64 63 63 62 62 61 60 59 59 58 58 57 57 56 55 54 54 53 52 52 51 51 51 50 50 50
70 70 71 71 71 71 71 72 72 73 73 74 74 75 75 76 76 76 76 77 77 77 77 77 77 77 77 77 78 78 78 78 78 77 77 77 77 76 76 75 75 74 73 72 71 71 70 70 70 70 70 70 70 70 70 70 69 68 68 67 66 66 65 65 64 63 62 62 61 60 60 59 58 58 57 56 55 55 54 53 53 52 52 52 52 52
72 72 73 73 73 74 74 75 75 76 76 77 77 78 78 79 79 79 79 79 80 80 80 80 80 80 80 80 80 81 81 81 81 80 80 80 80 80 79 79 78 78 77 76 75 74 74 73 72 72 72 72 72 72 72 72 72 71 70 69 68 68 67 67 66 66 65 64 63 62 62 61 60 59 59 58 57 56 55 55 54 54 53 53 53 53
75 75 76 76 76 77 77 78 78 79 79 80 80 81 81 81 82 82 82 82 83 83 83 83 83 82 82 83 83 83 83 84 84 83 83 82 82 82 82 82 82 81 80 79 79 78 77 76 75 75 74 74 74 74 74 74 74 74 73 72 71 70 70 69 69 68 67 66 66 65 64 63 62 61 61 60 59 58 57 57 56 55 55 54 54 53
78 78 79 79 79 80 80 80 81 81 82 82 83 83 83 84 84 84 85 85 85 85 85 85 85 84 85 85 85 85 86 86 86 86 85 84 84 85 85 84 84 84 83 82 82 81 81 80 79 78 77 77 76 76 76 76 76 76 76 75 74 73 72 71 71 70 70 69 68 67 66 65 65 64 63 62 61 60 59 58 58 57 56 56 55 55
80 81 81 81 82 82 82 83 83 84 84 85 85 85 86 86 86 87 87 87 87 87 87 87 87 87 86 86 87 87 88 87 88 88 87 87 86 86 86 86 86 86 85 85 84 84 84 83 83 82 81 80 79 79 79 79 79 79 79 78 77 76 75 74 74 73 72 72 71 70 69 68 67 66 65 64 63 62 61 60 60 59 58 57 57 56
83 83 83 84 84 84 85 85 85 86 86 87 87 87 88 88 88 88 89 89 89 89 89 89 89 89 88 88 89 89 89 89 89 90 89 89 88 88 88 88 88 88 88 87 86 86 86 86 85 85 84 84 83 82 82 82 82 82 82 81 81 80 79 78 77 76 75 75 74 73 72 71 70 69 68 67 66 65 64 63 62 61 60 59 58 58
85 85 85 86 86 86 87 87 87 88 88 89 89 89 89 90 90 90 90 91 91 91 91 91 91 91 90 90 90 91 91 91 91 91 91 91 90 90 90 90 90 90 89 89 88 88 88 88 88 87 87 86 86 86 85 85 85 85 85 85 84 83 82 81 80 79 78 78 77 76 75 74 73 72 71 70 69 68 67 66 64 63 62 61 60 59
87 87 88 88 88 88 89 89 90 90 90 91 91 91 92 92 92 92 93 93 93 93 93 93 93 93 92 92 92 92 93 92 93 93 93 93 92 91 91 91 91 92 91 90 90 89 89 90 90 89 89 89 89 88 88 88 88 88 88 88 87 87 86 85 84 83 82 81 80 79 79 77 76 75 74 73 72 71 70 68 67 66 65 64 63 62
89 89 90 90 90 90 91 91 91 92 92 92 93 93 93 93 94 94 94 94 94 95 95 95 95 95 94 94 94 94 94 94 95 95 95 95 94 94 93 93 93 94 93 92 92 91 91 91 91 91 91 91 91 91 91 90 90 90 90 91 90 90 90 89 87 86 85 84 83 83 82 81 80 79 78 76 75 74 73 71 70 69 68 66 65 64
90 91 91 92 92 92 93 93 93 94 94 94 94 95 95 95 95 96 96 96 96 96 97 97 97 97 96 96 96 96 96 97 97 98 98 97 97 96 96 96 96 96 96 95 94 93 93 93 93 93 93 93 93 93 93 93 92 92 92 93 93 93 93 92 91 90 89 88 87 86 85 84 83 82 81 80 79 77 76 74 73 72 70 69 68 67
92 93 93 93 94 94 95 95 95 96 96 96 97 97 97 98 98 98 98 98 98 99 99 99 99 99 99 98 98 98 99 99 100 100 100 100 99 99 99 98 98 98 98 97 96 95 95 95 95 94 94 94 94 95 95 95 95 94 94 94 94 95 95 94 94 93 92 91 90 89 88 87 86 85 84 83 82 80 79 78 76 75 73 72 71 70
94 95 95 95 96 96 97 97 97 98 98 99 99 99 100 100 100 100 101 101 101 101 101 101 101 101 101 101 100 100 101 101 101 101 101 101 101 101 101 100 99 99 99 99 98 97 97 96 96 96 95 95 95 95 96 96 96 96 96 96 96 96 96 96 96 96 95 94 93 92 91 90 89 88 87 86 85 83 82 81 79 78 77 75 74 72
96 97 97 98 98 98 99 99 100 100 100 101 101 101 102 102 102 103 103 103 103 103 103 104 104 104 104 103 102 102 102 103 102 102 102 102 102 102 102 101 100 99 100 100 100 99 98 97 98 97 96 95 95 96 96 96 97 97 97 97 97 97 97 97 97 97 97 96 95 94 93 92 91 90 89 88 87 86 85 83 82 81 80 79 77 75
98 99 99 100 100 100 101 101 101 102 102 103 103 103 104 104 104 104 104 105 105 105 105 105 105 106 105 104 103 103 103 103 102 102 103 102 101 102 102 102 101 99 99 100 100 99 98 98 98 97 97 96 96 96 96 96 97 98 98 98 98 98 98 98 98 99 99 98 98 97 96 95 94 92 91 90 89 88 87 86 84 83 82 81 80 77
100 100 101 101 102 102 102 103 103 103 104 104 104 105 106 106 105 105 106 107 107 106 106 106 106 106 105 104 104 103 102 101 101 102 102 101 100 101 102 102 100 99 98 99 99 99 97 97 97 97 96 96 95 95 95 96 97 97 98 99 99 99 98 98 99 99 100 100 99 99 98 97 96 94 93 92 91 90 89 88 86 85 84 81 79 78
101 102 102 102 103 103 104 104 104 105 105 105 105 106 107 106 106 106 107 108 107 106 106 107 106 105 104 104 103 103 101 100 100 101 100 99 98 100 101 100 98 97 97 97 97 97 96 95 95 95 94 94 94 94 94 95 96 97 98 99 99 99 99 99 99 100 100 101 101 100 99 99 97 96 95 94 93 92 90 89 88 87 86 79 77 77
102 103 103 104 104 104 105 105 106 106 106 106 106 106 107 107 106 106 107 107 106 105 105 105 105 104 103 102 102 101 100 100 99 99 97 96 96 98 99 97 95 95 95 94 93 93 93 94 93 92 92 92 93 93 93 93 94 95 96 98 99 99 100 100 100 100 101 101 101 101 100 99 98 97 96 95 94 92 91 90 89 89 88 81 78 78
104 104 105 105 106 106 106 106 107 107 107 107 107 106 106 106 106 105 105 105 104 103 103 102 102 102 101 100 99 98 99 99 98 96 93 92 93 96 96 93 91 92 92 91 89 88 90 91 91 89 88 88 90 90 90 90 91 92 94 95 97 98 99 99 100 100 101 101 101 101 100 99 98 97 96 95 94 93 91 90 89 88 87 85 83 80
106 106 106 107 107 107 108 108 108 108 108 107 107 106 106 105 104 103 102 102 101 100 99 99 99 99 99 98 96 96 95 95 94 92 90 88 90 92 93 89 87 87 88 87 85 84 84 86 86 85 84 83 84 85 86 86 86 87 89 91 93 94 96 97 98 99 100 101 101 100 99 98 97 96 95 94 93 92 91 90 88 87 86 85 82 78
108 108 108 109 109 109 109 109 108 108 108 107 106 105 104 103 101 100 99 98 97 97 96 95 95 95 95 94 93 92 91 89 88 87 85 85 85 87 88 85 83 82 82 82 81 79 79 79 80 80 78 78 78 79 80 80 80 81 83 85 87 89 91 93 94 96 97 98 99 99 98 96 95 94 94 93 92 91 90 89 88 86 84 83 81 77
110 110 110 109 109 109 109 109 108 107 106 105 104 103 101 100 98 97 96 95 94 93 92 91 90 90 89 89 88 86 85 83 82 81 80 80 81 82 82 79 77 76 76 75 75 75 74 73 73 72 72 72 73 73 73 74 74 75 77 78 80 82 84 86 88 91 93 94 95 96 96 95 93 92 91 91 90 90 89 88 86 85 84 83 81 78
111 110 110 109 108 108 107 107 106 104 103 102 100 99 97 95 94 93 92 91 90 89 88 87 85 84 83 82 81 80 79 78 76 74 74 75 76 76 75 73 72 71 70 70 70 70 69 68 68 67 66 67 67 67 67 67 68 69 71 72 73 75 77 79 81 84 86 88 90 91 92 92 91 90 89 88 88 87 87 87 85 84 82 81 80 79
110 109 108 107 106 105 104 103 101 100 98 96 95 93 92 90 89 88 88 86 85 84 82 81 80 78 77 76 74 73 73 72 71 69 69 70 70 70 69 68 67 66 64 65 65 65 64 64 63 63 62 61 61 62 62 62 62 63 64 65 67 68 70 72 74 76 79 81 83 85 87 88 88 88 87 86 85 85 85 85 84 83 81 80 80 79
107 105 104 103 101 100 98 97 96 94 91 90 88 87 85 84 83 82 81 79 78 76 75 74 73 72 71 70 68 67 66 66 65 64 64 65 65 64 63 63 62 61 59 59 60 60 59 59 59 58 58 57 57 56 56 56 56 57 58 59 60 62 63 65 67 69 71 73 75 78 80 82 83 84 84 83 83 83 83 84 84 83 81 80 80 79
101 99 98 97 95 93 91 90 88 86 84 82 80 79 78 77 75 74 73 71 70 69 68 67 66 66 65 63 62 61 60 60 59 59 59 59 59 59 58 57 56 55 54 54 55 55 55 54 54 54 53 52 52 51 51 51 51 52 53 54 55 57 58 59 61 63 64 66 68 71 73 76 78 79 80 80 80 80 81 82 82 82 82 81 81 79
94 92 90 88 86 84 82 81 79 78 76 73 72 71 69 68 67 66 64 63 62 61 61 60 59 59 58 57 56 55 54 54 53 53 53 53 53 52 52 51 50 50 50 50 50 50 51 51 50 50 49 49 48 48 48 48 48 49 50 51 52 53 54 55 56 58 59 60 62 64 67 69 72 74 75 76 77 77 78 80 81 82 83 82 81 79
85 83 81 79 77 75 72 71 70 68 66 64 63 61 60 59 58 57 56 55 54 54 53 53 52 52 51 50 49 48 47 47 46 46 46 46 46 46 46 46 46 46 46 47 47 48 48 48 48 48 47 47 46 46 46 46 47 48 48 49 49 50 51 52 53 54 55 56 58 59 61 64 66 69 71 72 73 74 76 77 79 81 82 82 80 79
75 73 71 69 67 64 63 61 59 58 56 54 53 51 50 49 49 48 48 47 46 45 45 45 44 44 44 43 42 41 40 40 40 40 40 41 42 42 43 44 44 45 45 46 47 48 48 48 48 48 47 46 46 46 46 46 47 47 48 49 49 49 50 50 51 52 53 54 54 55 57 59 61 64 66 68 69 71 72 74 77 79 81 82 81 80
64 62 60 58 56 54 52 50 48 47 45 44 42 41 41 40 39 39 39 38 38 37 37 37 38 38 37 37 36 35 35 36 36 37 38 40 41 42 44 45 46 47 48 49 49 50 50 50 50 49 48 48 48 47 47 47 48 48 49 49 49 49 50 50 51 51 51 52 52 53 54 55 57 59 62 64 65 67 69 71 74 77 80 81 82 81
52 50 48 46 44 42 41 39 37 36 35 33 32 32 32 31 31 32 32 32 33 33 33 34 34 34 34 34 34 34 35 36 37 39 40 41 43 44 46 47 48 50 50 51 52 52 52 52 51 51 50 49 49 49 49 49 48 49 49 50 50 50 49 50 50 50 51 51 51 51 51 52 53 56 58 60 62 63 66 69 72 76 78 80 81 81
40 38 36 34 33 31 30 29 28 27 26 26 26 26 27 28 28 29 30 31 32 32 33 34 34 34 34 35 35 36 37 39 40 41 42 43 44 46 47 48 49 50 51 52 52 53 53 53 52 52 51 51 51 51 51 50 50 49 50 50 50 50 50 50 50 50 50 50 49 49 48 49 50 52 54 57 59 61 63 66 70 74 77 79 80 80
29 28 26 25 24 24 23 24 24 24 24 25 26 27 28 29 30 31 32 33 33 34 34 35 35 35 36 36 37 37 38 39 40 40 41 42 43 44 45 46 47 48 49 50 51 51 52 52 52 52 52 52 53 53 52 51 51 51 51 51 50 50 50 49 49 49 48 48 47 46 45 45 47 49 51 54 56 59 62 65 69 72 75 77 79 79
22 22 22 22 22 22 23 24 24 25 26 27 28 29 31 32 33 33 34 34 35 35 35 35 35 36 36 36 36 36 37 37 37 38 38 39 40 41 42 43 44 45 47 48 49 50 50 51 52 52 53 53 54 54 54 53 52 52 51 51 50 50 49 48 47 47 46 45 43 42 42 42 44 47 50 52 55 58 61 64 68 72 74 76 78 78
21 21 22 23 23 24 25 26 27 28 29 30 31 32 33 34 34 35 35 35 35 35 35 35 34 34 34 34 34 34 34 34 34 35 36 37 38 39 40 42 43 44 45 47 48 49 50 51 52 52 53 54 54 54 54 53 53 52 51 50 49 48 47 46 45 45 43 41 39 38 38 39 41 45 48 51 54 57 60 64 68 71 74 76 77 78
23 24 25 26 26 27 28 29 30 30 31 32 32 33 34 34 34 34 34 34 34 33 33 33 32 32 32 32 31 31 31 32 32 33 34 35 36 37 39 40 42 43 45 46 47 48 49 50 51 51 52 52 52 52 52 51 50 49 48 47 47 46 45 43 42 41 39 37 35 34 34 36 38 42 47 51 54 57 61 64 67 70 73 75 77 78
26 27 27 28 29 29 30 31 31 32 32 32 33 33 33 33 33 33 32 32 31 31 31 30 30 30 29 29 28 29 29 30 30 31 32 33 34 36 37 39 40 41 42 44 45 46 47 47 47 47 47 47 46 46 45 44 44 44 43 43 43 42 41 40 38 37 35 34 34 34 34 35 37 41 46 50 54 58 61 64 67 70 72 74 76 78
28 29 29 29 30 30 31 31 31 31 32 32 32 32 32 32 32 31 31 30 30 29 29 28 27 26 25 25 25 26 27 28 29 30 32 33 34 35 36 37 38 39 40 41 41 41 42 42 42 41 41 40 38 37 36 36 37 37 38 38 38 38 37 36 35 34 35 36 37 38 37 37 39 42 46 50 54 58 61 64 67 69 72 74 76 78
29 29 29 29 30 30 30 30 30 31 31 31 31 31 31 30 30 29 29 28 27 26 25 24 22 22 22 22 24 25 27 29 30 31 32 34 35 35 36 36 37 37 38 38 37 37 36 36 35 34 33 32 31 30 30 30 31 32 33 34 34 34 34 34 35 37 39 41 42 41 39 39 40 43 47 50 54 57 60 63 66 69 71 74 76 79
Wind_Direction
267 267 267 267 268 269 270 272 274 276 277 278 279 279 279 279 279 279 279 278 278 278 277 277 276 276 275 274 273 273 272 272 272 272 272 273 273 273 273 273 273 273 273 273 272 272 272 272 272 272 271 271 271 271 272 272 272 272 272 272 271 271 271 271 271 271 270 270 270 270 270 270 271 271 271 271 271 271 271 271 270 269 269 269 270 272
265 265 266 267 268 269 271 273 274 276 277 278 279 279 279 278 278 278 278 278 278 278 278 277 277 276 276 275 274 274 273 272 272 272 271 271 272 272 272 272 272 272 272 272 272 271 271 271 271 271 271 271 270 270 270 270 270 271 271 271 271 270 270 270 270 270 270 270 269 269 269 269 270 270 270 270 271 271 271 270 270 269 269 269 270 272
265 266 267 268 270 271 273 274 276 277 278 278 278 278 277 277 277 277 278 278 277 277 277 277 277 276 276 276 275 274 274 273 272 272 271 271 271 271 271 271 272 272 272 271 271 271 271 271 271 270 270 270 270 270 270 270 269 269 270 270 270 270 269 269 269 269 269 269 269 269 269 269 269 269 269 269 269 269 270 270 269 269 268 269 270 272
267 269 270 272 273 275 276 277 278 278 279 278 277 277 276 276 277 277 277 277 277 276 276 276 276 275 275 275 275 275 274 274 273 273 272 272 272 271 271 271 271 271 271 271 271 271 271 271 270 270 270 270 270 269 269 269 269 269 269 269 269 269 269 269 268 268 268 268 268 268 268 268 268 268 268 268 268 268 268 268 268 268 268 269 270 272
271 273 274 276 277 278 278 279 279 279 278 277 276 276 276 276 276 276 276 276 276 276 276 275 275 275 275 275 275 275 275 274 274 274 274 273 273 272 272 272 272 271 272 272 272 272 271 271 270 270 270 270 269 269 269 269 268 268 268 268 268 268 268 268 268 268 267 267 267 267 267 267 267 267 267 267 267 267 267 267 267 268 268 269 270 271
275 276 278 278 279 279 280 279 279 278 277 276 276 276 276 276 276 276 276 276 276 276 275 275 275 275 275 275 275 275 275 275 275 275 275 274 274 274 273 273 272 272 272 272 272 272 272 271 271 270 270 270 269 269 269 269 268 268 268 268 267 267 267 267 267 267 267 266 266 266 266 266 266 266 266 266 266 266 266 266 266 267 267 268 269 270
278 279 280 280 280 280 279 278 277 276 276 275 275 275 276 276 276 276 276 276 276 276 276 276 275 275 275 275 275 275 275 275 275 275 275 275 275 275 274 274 273 273 273 272 272 272 272 272 271 271 270 270 270 269 269 269 268 268 268 267 267 267 267 267 267 267 266 266 266 265 265 264 264 264 265 265 266 266 266 266 266 266 266 267 268 268
281 281 281 281 280 280 278 277 276 276 276 276 276 276 276 276 276 276 277 276 276 276 276 276 276 276 276 276 276 275 275 275 275 274 274 274 274 274 274 274 274 274 273 273 272 272 272 272 272 271 271 270 270 270 269 269 269 268 268 268 267 267 267 267 266 266 266 266 265 265 264 264 263 263 263 264 264 265 265 265 265 265 265 266 267 267
282 282 282 281 280 279 278 277 277 277 277 277 277 277 277 277 277 277 277 277 277 277 277 277 277 276 276 276 276 276 276 275 275 275 274 274 274 274 274 274 274 274 273 273 273 272 272 272 272 271 271 271 270 270 270 269 269 269 268 268 267 267 267 266 266 266 266 265 265 265 264 264 263 263 262 262 263 263 264 264 264 264 264 264 265 265
283 282 281 280 280 279 278 278 278 278 278 278 278 278 278 278 278 278 278 277 278 278 277 277 277 277 276 276 276 276 276 276 275 275 275 274 274 274 274 274 274 273 273 273 273 272 272 272 272 271 271 271 271 270 270 269 269 269 268 268 267 267 267 266 266 265 265 265 265 264 264 264 263 263 262 262 262 262 262 262 262 263 263 263 263 263
282 281 281 280 280 280 280 280 280 279 279 279 279 279 279 279 279 279 278 278 278 277 277 277 277 277 276 276 276 276 275 275 275 275 275 275 275 274 274 274 273 273 273 273 273 272 272 272 272 271 271 271 271 270 270 269 269 268 268 268 267 267 266 266 265 265 265 264 264 264 264 263 263 262 262 261 261 261 261 261 261 261 262 262 262 262
281 281 281 281 281 281 281 281 281 281 281 280 280 280 280 280 280 279 279 278 278 277 277 277 276 276 276 276 275 275 275 275 275 274 274 274 274 274 274 274 274 273 273 273 273 272 272 272 271 271 271 271 270 270 269 269 268 268 267 267 267 266 266 266 265 265 264 264 263 263 263 263 262 262 262 261 261 260 260 260 260 260 260 261 261 261
282 282 282 282 282 282 282 282 282 282 282 282 282 281 281 280 280 279 279 278 278 277 277 276 276 276 275 275 275 275 274 274 274 273 273 273 273 273 273 273 273 273 273 273 272 272 272 271 271 271 271 270 270 270 269 269 268 268 267 266 266 266 265 265 265 264 264 263 263 263 262 262 262 261 261 261 260 260 259 259 259 259 259 259 260 260
282 282 283 283 283 283 283 283 283 283 283 282 282 281 281 280 280 279 279 278 278 277 277 276 276 276 275 275 275 275 274 274 273 273 273 272 272 272 272 272 272 272 272 272 272 272 271 271 271 270 270 270 270 269 269 268 268 267 266 266 265 265 265 264 264 264 263 263 262 262 262 261 261 261 260 260 260 259 259 258 258 258 258 258 259 259
284 284 284 284 284 284 284 283 283 283 282 282 281 281 280 280 279 279 279 278 278 277 277 276 276 275 275 275 275 275 274 274 273 273 272 272 272 271 271 271 271 271 271 271 271 271 271 270 270 270 269 269 269 269 268 268 267 267 266 266 265 265 264 264 263 263 263 262 262 261 261 261 260 260 260 259 259 258 258 257 257 257 257 257 257 258
284 284 284 284 284 283 283 282 282 282 281 281 280 280 280 279 279 278 278 278 277 277 276 276 276 275 275 275 275 274 274 274 273 273 272 272 272 271 271 271 270 270 270 270 270 270 270 270 269 269 269 268 268 268 268 268 267 267 266 265 265 264 263 263 263 262 262 261 261 261 260 260 259 259 259 258 258 258 257 257 256 256 256 256 256 256
283 283 283 283 282 282 281 281 281 280 280 280 279 279 279 279 278 278 278 277 277 277 276 276 276 275 275 275 275 275 274 274 274 273 273 272 272 272 271 271 270 270 269 269 269 269 269 269 269 268 268 268 267 267 267 267 267 266 266 265 264 264 263 262 262 262 261 261 260 260 259 259 259 258 258 257 257 257 256 256 255 255 255 255 255 255
282 281 281 281 281 280 280 280 280 279 279 279 279 279 278 278 278 278 278 277 277 277 277 276 276 276 275 275 275 275 274 274 274 274 273 273 272 272 271 271 271 270 270 269 269 268 268 268 268 268 267 267 267 266 266 266 266 265 265 265 264 263 263 262 261 261 260 260 260 259 259 258 258 257 257 256 256 256 255 255 254 254 254 254 253 253
281 280 280 280 280 280 280 280 279 279 279 279 279 279 278 278 278 278 278 278 277 277 277 277 276 276 276 275 275 275 275 274 274 274 273 273 272 272 272 271 271 270 270 269 269 268 268 268 267 267 267 266 266 266 265 265 265 264 264 264 264 263 262 261 261 260 260 259 259 258 258 257 257 256 256 255 255 255 254 254 253 253 253 252 252 252
280 280 280 280 280 280 280 280 280 280 279 279 279 279 279 279 278 278 278 278 278 277 277 277 276 276 276 275 275 275 274 274 274 273 273 272 272 272 271 271 270 270 270 269 269 268 268 267 267 266 266 266 265 265 264 264 264 263 263 263 263 262 262 261 260 259 259 258 258 258 257 257 256 255 255 254 254 254 253 253 252 252 252 251 251 250
281 281 280 280 280 280 280 280 280 280 280 279 279 279 279 279 278 278 278 278 277 277 277 277 276 276 276 275 275 275 274 274 273 273 273 272 272 271 271 270 270 270 269 269 268 268 268 267 267 266 266 265 265 264 263 263 263 262 262 262 262 261 261 260 259 259 258 257 257 256 256 256 255 254 254 253 253 252 252 251 251 251 250 250 249 249
281 281 281 281 281 280 280 280 280 280 279 279 279 279 279 278 278 278 278 278 277 277 277 277 276 276 276 276 275 275 275 274 273 273 273 272 272 271 271 270 270 269 269 269 268 268 267 267 266 266 265 265 264 263 263 262 261 261 261 261 260 260 260 259 258 258 257 256 256 255 255 254 254 253 253 252 251 251 250 250 250 249 249 248 248 247
281 281 281 281 281 281 280 280 280 280 279 279 279 279 279 279 278 278 278 278 278 277 277 277 277 277 276 276 276 275 275 275 274 274 273 273 272 272 271 271 270 270 269 269 268 267 267 266 266 265 265 264 264 263 262 262 261 260 259 259 259 259 258 258 257 257 256 255 254 254 253 253 252 252 251 251 250 249 249 248 248 247 247 247 246 246
281 281 281 281 281 281 280 280 280 280 280 279 279 279 279 279 279 279 278 278 278 278 278 277 277 277 277 276 276 276 276 275 275 274 274 274 273 273 272 271 271 270 270 269 269 268 267 266 266 265 264 264 263 263 262 261 260 259 258 258 257 257 257 257 256 256 255 254 253 252 252 251 251 250 250 249 248 248 247 247 246 246 245 245 244 244
281 281 281 281 281 281 280 280 280 280 280 280 280 280 280 279 279 279 279 279 279 278 278 278 277 277 277 277 276 276 276 276 275 275 275 274 274 273 273 272 271 271 270 270 269 268 267 267 266 265 264 264 263 262 262 261 260 259 258 257 256 256 255 255 255 255 254 253 252 251 250 249 249 248 248 247 247 246 246 245 244 244 243 243 242 242
281 281 281 281 281 281 281 281 281 280 280 280 280 280 280 280 280 279 279 279 279 279 278 278 278 278 277 277 277 277 276 276 276 275 275 275 274 274 273 273 272 271 271 270 269 268 268 267 266 266 264 263 263 262 261 260 260 259 258 257 256 255 254 254 254 253 253 252 251 250 249 248 247 247 246 246 245 245 244 244 243 242 242 241 240 240
282 282 281 281 281 281 281 281 281 281 281 281 281 281 280 280 280 280 280 279 279 279 279 278 278 278 278 278 277 277 277 276 276 276 275 275 274 274 273 273 272 271 271 270 270 269 268 267 267 266 265 263 262 261 260 259 259 258 257 256 255 254 253 252 252 252 251 251 250 249 248 247 246 245 245 244 243 243 242 242 241 241 240 239 238 238
282 282 282 282 282 282 282 282 282 281 281 281 281 281 281 281 280 280 280 280 279 279 279 279 279 278 278 278 278 277 277 277 276 276 275 275 274 274 273 273 272 271 271 270 270 269 268 267 266 266 265 263 262 261 259 258 257 257 256 255 254 253 252 251 250 250 250 249 249 248 247 246 245 244 243 242 242 241 241 240 240 239 238 237 236 236
282 282 282 282 282 282 282 282 282 282 282 282 282 282 281 281 281 281 280 280 280 280 280 280 279 279 279 279 278 278 277 277 276 276 275 274 274 274 273 273 272 271 271 270 269 269 268 267 266 265 264 263 262 260 259 258 256 255 254 254 253 252 251 250 249 248 248 248 247 247 246 245 244 243 242 241 240 239 239 238 238 238 237 235 234 234
282 282 283 283 283 283 283 283 282 282 282 282 282 282 282 282 282 281 281 281 281 281 280 280 280 280 279 279 278 278 277 277 276 276 275 274 273 273 273 272 272 271 271 269 268 268 268 267 266 265 264 263 262 261 259 257 256 255 253 253 252 251 250 249 248 247 246 246 246 246 245 244 243 242 241 240 239 238 237 237 236 236 236 234 233 233
283 283 283 283 283 283 283 283 283 283 283 283 282 282 282 282 282 282 282 281 281 281 281 280 280 280 279 278 278 278 278 277 277 276 274 273 273 273 273 272 271 271 271 269 268 267 267 267 266 265 263 262 262 261 259 257 255 254 253 252 251 250 249 248 247 246 245 245 245 245 244 244 243 241 240 239 238 237 236 235 234 234 234 233 232 231
284 284 284 284 284 284 284 284 283 283 283 283 283 283 283 282 282 282 282 281 281 281 280 280 280 279 279 278 278 277 278 277 277 275 274 272 272 272 272 271 271 270 270 269 267 266 266 266 266 264 263 261 261 260 259 257 255 254 253 251 250 250 249 248 247 246 245 244 244 244 244 243 242 241 240 238 237 236 234 233 232 232 232 231 230 228
284 284 284 284 284 284 284 284 283 283 283 283 283 283 283 282 282 282 281 281 280 280 279 279 279 278 278 278 278 277 277 276 276 274 273 272 271 271 271 271 270 270 269 268 267 266 265 265 264 264 262 261 260 259 258 257 256 254 253 251 251 250 249 248 247 246 245 244 244 244 243 243 242 241 239 238 236 235 234 232 231 230 229 229 228 227
284 284 284 284 284 284 284 284 283 283 283 283 283 283 282 282 282 281 281 280 279 279 278 278 278 277 277 277 277 277 276 275 274 273 272 271 271 271 270 270 269 269 268 267 266 266 265 264 263 262 261 260 259 258 257 256 255 254 253 252 251 250 249 248 247 247 246 245 244 244 243 243 242 241 240 238 236 234 233 231 230 228 228 227 227 225
284 284 284 284 284 284 284 283 283 283 283 283 283 282 282 281 281 280 279 279 279 278 278 277 277 276 276 276 276 275 275 274 273 272 271 270 270 270 270 269 269 268 267 266 265 265 264 263 263 261 260 259 259 258 257 256 255 254 253 252 251 251 250 249 248 247 246 245 245 244 243 243 242 241 240 238 236 234 232 230 228 226 225 224 224 223
285 284 284 284 284 284 283 283 283 283 283 282 282 281 281 280 280 279 279 278 278 278 277 277 276 276 275 274 274 274 274 273 272 271 270 270 269 269 269 269 268 267 266 265 264 264 263 262 261 261 259 258 257 257 256 255 255 254 253 252 252 251 250 249 249 248 247 246 245 244 243 243 242 241 240 238 236 233 231 229 227 225 222 221 221 221
285 284 284 284 284 283 283 283 283 282 282 281 281 280 280 279 279 278 278 277 277 276 276 275 275 274 274 274 273 273 272 271 271 270 269 269 269 268 268 268 267 266 264 263 263 262 261 261 260 259 258 257 256 255 255 254 254 253 253 252 252 251 250 249 249 248 247 246 245 244 243 242 241 241 239 238 235 233 230 228 226 223 220 219 219 219
285 285 284 284 284 283 283 282 282 282 281 280 280 279 279 278 278 277 277 276 276 275 274 274 273 273 273 272 272 272 271 270 269 269 268 268 268 267 267 266 265 264 263 262 261 260 260 259 259 258 257 256 255 254 253 253 252 252 252 251 251 250 250 249 249 248 247 246 245 244 243 242 241 240 238 237 235 232 229 227 225 222 219 218 217 217
285 285 284 284 283 283 283 282 282 281 280 280 279 278 278 277 277 276 275 275 274 273 273 272 272 272 271 271 271 271 270 269 268 268 267 267 266 266 266 265 264 263 261 260 260 259 259 258 258 257 257 256 254 253 252 252 251 251 251 250 250 250 250 249 249 248 247 246 245 243 242 241 240 238 237 236 234 231 228 226 223 221 219 217 216 215
285 285 284 284 283 283 283 282 281 281 280 279 279 278 277 276 275 275 274 273 273 272 272 271 271 270 270 270 270 269 269 268 268 267 266 266 265 265 265 264 263 262 261 260 260 259 259 259 258 258 257 256 254 253 252 252 251 251 250 250 250 250 250 250 249 249 248 246 245 243 242 240 238 237 236 234 232 230 227 224 222 220 218 216 214 213
286 285 285 284 284 284 283 282 281 281 280 279 278 277 276 275 274 273 273 272 272 272 271 270 270 270 269 269 268 268 268 267 267 267 266 266 266 266 265 265 264 263 262 262 261 261 261 260 260 259 258 257 255 254 253 252 251 251 251 251 250 250 250 250 250 250 248 247 245 243 241 239 238 236 234 232 230 228 226 223 220 219 217 215 213 212
287 286 286 285 285 284 284 283 282 281 280 279 278 277 275 275 274 273 272 272 272 271 271 270 270 269 269 269 269 268 268 267 267 267 267 267 267 267 267 267 266 266 265 265 264 264 263 263 262 261 260 259 257 255 254 252 252 251 251 251 251 251 251 251 251 250 250 248 246 244 241 239 237 234 232 230 228 226 224 221 219 217 215 214 212 211
288 288 287 286 286 285 284 283 283 282 281 280 279 277 276 275 274 273 272 272 271 271 270 270 270 270 271 271 271 270 269 268 268 267 267 267 267 267 267 267 267 267 267 267 266 266 265 265 264 263 262 260 259 257 255 253 252 251 251 252 252 251 251 251 251 250 250 248 246 244 241 238 236 233 230 228 225 223 221 218 217 215 214 213 211 210
290 289 289 288 287 286 286 285 285 284 283 283 281 280 279 278 276 275 273 273 272 272 272 272 273 273 273 273 272 272 271 270 269 268 268 267 267 266 266 266 266 266 266 266 266 266 266 265 265 264 263 261 260 258 256 254 253 252 252 252 252 251 251 251 250 250 249 247 246 243 241 237 234 230 227 224 222 219 217 215 214 213 212 211 210 209
293 292 292 291 291 290 290 289 288 287 287 285 284 282 281 280 278 277 276 276 276 275 276 276 276 276 276 275 274 273 273 272 271 271 270 269 269 268 268 267 267 267 267 266 266 266 266 266 265 264 263 261 260 258 257 255 254 252 252 251 251 251 250 249 249 248 247 246 244 241 238 234 230 226 223 220 218 215 213 212 211 211 210 209 207 206
296 295 295 294 294 293 292 291 290 289 287 286 284 283 281 280 280 280 280 280 280 281 281 281 281 281 280 279 278 277 276 275 274 274 273 273 272 272 271 270 270 269 269 269 268 268 268 267 266 265 264 262 261 259 258 256 254 253 251 251 250 249 248 247 246 245 244 242 240 237 233 228 224 221 218 216 213 211 210 209 209 208 208 207 205 204
299 297 296 295 294 293 291 290 289 288 287 286 285 284 283 283 283 284 284 285 285 285 285 285 284 283 282 281 280 279 278 277 277 276 276 275 275 274 274 273 273 272 272 272 271 271 270 269 268 266 265 263 262 260 258 257 254 253 251 249 248 247 245 244 242 241 239 236 233 228 224 220 217 215 213 211 209 208 207 206 206 206 205 204 203 202
299 297 296 295 294 293 292 291 290 289 288 288 287 287 287 287 287 288 288 288 288 287 287 286 285 284 283 282 281 280 279 278 278 277 277 277 277 277 276 276 276 276 275 275 274 273 272 271 270 268 266 264 262 260 258 256 253 251 249 247 245 243 241 239 237 235 232 226 220 214 210 209 210 211 210 208 205 204 204 204 204 204 203 202 201 201
299 299 297 297 296 295 294 294 293 292 292 291 290 290 290 290 290 289 289 289 288 287 286 285 284 284 283 282 281 281 280 279 278 278 278 278 278 278 278 278 278 278 278 277 277 275 274 272 270 268 266 263 260 258 255 253 250 247 244 242 239 237 234 232 229 225 219 210 201 196 195 199 204 208 209 205 202 201 201 202 202 202 201 200 199 199
302 301 300 299 298 297 296 295 295 293 292 292 291 290 289 289 289 288 288 287 286 285 285 284 284 284 283 282 282 282 281 281 280 279 279 279 278 278 278 278 279 279 279 279 279 277 275 273 270 266 263 260 256 252 249 246 243 240 237 234 232 229 225 221 216 209 199 191 187 186 189 194 200 205 207 204 201 199 199 200 200 200 199 198 198 197
304 303 302 301 299 298 297 295 294 292 291 290 289 288 287 287 287 286 286 286 285 285 285 285 285 285 285 286 286 286 285 284 284 283 282 281 280 279 279 280 280 281 282 282 281 279 276 271 267 262 257 253 248 243 238 235 233 230 228 225 222 218 213 206 199 191 185 182 183 186 189 192 196 202 205 203 199 197 197 198 198 198 197 197 196 196
Height
5657 5658 5657 5657 5656 5656 5656 5656 5656 5655 5654 5654 5654 5653 5653 5652 5652 5652 5652 5652 5651 5651 5651 5651 5651 5651 5652 5652 5652 5652 5652 5652 5652 5652 5651 5651 5651 5651 5651 5651 5651 5651 5651 5652 5652 5652 5652 5652 5652 5653 5653 5653 5653 5653 5653 5653 5653 5654 5654 5654 5654 5655 5655 5656 5656 5656 5655 5655 5655 5656 5656 5656 5656 5656 5656 5657 5657 5657 5657 5658 5658 5658 5658 5658 5658 5659
5652 5652 5652 5652 5651 5651 5651 5651 5651 5650 5649 5648 5648 5648 5648 5647 5647 5647 5647 5647 5646 5646 5646 5646 5646 5646 5646 5646 5647 5647 5647 5647 5647 5647 5647 5647 5647 5647 5647 5647 5647 5647 5647 5647 5648 5648 5648 5648 5648 5648 5648 5648 5649 5649 5649 5649 5649 5649 5650 5650 5651 5651 5651 5652 5652 5652 5652 5652 5652 5652 5652 5653 5653 5653 5653 5653 5653 5654 5654 5655 5656 5656 5656 5655 5655 5656
5648 5647 5647 5646 5646 5646 5645 5645 5645 5644 5643 5643 5643 5643 5643 5642 5642 5642 5642 5642 5642 5641 5641 5641 5641 5641 5641 5641 5641 5641 5642 5642 5642 5642 5642 5642 5642 5642 5642 5642 5642 5642 5642 5643 5643 5643 5643 5644 5644 5644 5644 5644 5644 5645 5645 5645 5645 5645 5645 5646 5647 5647 5647 5647 5647 5648 5649 5649 5649 5648 5649 5649 5649 5649 5649 5650 5650 5651 5651 5652 5653 5653 5652 5652 5652 5653
5642 5641 5641 5641 5641 5640 5640 5639 5639 5638 5638 5638 5638 5638 5638 5637 5637 5637 5637 5637 5637 5637 5637 5636 5636 5636 5636 5636 5636 5636 5636 5636 5637 5637 5637 5637 5637 5638 5638 5638 5638 5638 5638 5638 5638 5638 5639 5639 5639 5639 5640 5640 5640 5640 5640 5641 5641 5641 5641 5642 5642 5643 5643 5643 5643 5643 5644 5645 5645 5645 5645 5645 5646 5646 5646 5646 5647 5647 5648 5648 5649 5649 5649 5648 5649 5649
5637 5636 5636 5636 5635 5635 5634 5633 5633 5633 5632 5632 5632 5632 5632 5632 5632 5631 5631 5631 5631 5631 5631 5631 5631 5631 5631 5631 5631 5631 5630 5631 5631 5631 5631 5632 5632 5632 5633 5633 5633 5633 5633 5633 5633 5633 5634 5634 5634 5635 5635 5635 5635 5636 5636 5636 5636 5637 5637 5637 5637 5638 5638 5639 5639 5639 5640 5640 5641 5641 5642 5643 5643 5643 5643 5643 5643 5643 5644 5644 5645 5646 5646 5645 5645 5646
5632 5631 5630 5630 5629 5629 5628 5628 5627 5627 5627 5627 5627 5627 5626 5626 5626 5626 5626 5626 5625 5625 5625 5626 5626 5626 5626 5625 5625 5625 5625 5625 5625 5625 5626 5626 5626 5626 5627 5627 5628 5628 5628 5628 5628 5628 5628 5628 5629 5629 5630 5630 5631 5631 5631 5631 5632 5632 5632 5633 5633 5633 5633 5634 5634 5635 5636 5636 5637 5637 5638 5639 5639 5639 5640 5641 5640 5639 5640 5640 5641 5642 5642 5642 5642 5643
5626 5625 5624 5623 5623 5623 5623 5622 5622 5621 5621 5621 5621 5621 5620 5620 5620 5619 5619 5619 5619 5619 5619 5619 5620 5620 5620 5620 5620 5620 5620 5619 5620 5620 5620 5620 5620 5621 5621 5621 5622 5622 5623 5623 5623 5623 5623 5623 5623 5624 5624 5625 5625 5626 5626 5626 5627 5627 5627 5628 5628 5628 5628 5629 5629 5630 5631 5632 5632 5633 5633 5634 5635 5635 5636 5637 5637 5636 5636 5636 5637 5637 5638 5639 5639 5639
5620 5619 5618 5618 5617 5617 5617 5617 5616 5616 5615 5614 5614 5615 5614 5614 5614 5613 5613 5613 5613 5613 5613 5613 5613 5614 5614 5614 5614 5614 5614 5614 5614 5614 5614 5614 5614 5615 5615 5615 5616 5616 5617 5617 5617 5617 5617 5617 5618 5618 5618 5619 5620 5620 5621 5621 5621 5622 5622 5623 5623 5623 5624 5624 5625 5625 5626 5627 5627 5628 5629 5629 5630 5631 5632 5633 5633 5632 5632 5632 5633 5633 5634 5635 5636 5636
5613 5612 5612 5612 5611 5611 5611 5611 5610 5609 5608 5608 5608 5608 5608 5608 5607 5607 5607 5607 5606 5606 5606 5607 5607 5608 5608 5608 5608 5608 5608 5608 5608 5608 5608 5609 5609 5609 5609 5610 5610 5611 5611 5611 5612 5612 5612 5612 5612 5612 5613 5613 5614 5615 5615 5616 5616 5616 5617 5617 5618 5618 5619 5619 5620 5620 5621 5621 5622 5623 5624 5625 5625 5626 5627 5628 5628 5628 5627 5628 5629 5629 5630 5631 5632 5632
5606 5606 5606 5606 5605 5605 5604 5604 5603 5603 5602 5601 5600 5600 5600 5600 5600 5600 5600 5600 5600 5600 5600 5600 5600 5601 5601 5602 5602 5602 5602 5602 5602 5603 5603 5603 5603 5603 5603 5604 5604 5604 5605 5605 5606 5606 5606 5606 5606 5606 5606 5607 5608 5608 5609 5610 5611 5611 5611 5612 5612 5613 5613 5614 5614 5615 5616 5616 5617 5618 5619 5620 5620 5621 5622 5623 5623 5623 5623 5624 5624 5625 5626 5626 5628 5628
5600 5600 5599 5599 5599 5598 5598 5597 5597 5596 5595 5594 5593 5593 5593 5593 5592 5592 5593 5593 5594 5594 5594 5593 5593 5594 5595 5595 5595 5595 5595 5596 5596 5596 5597 5597 5597 5597 5597 5598 5598 5598 5599 5599 5599 5600 5600 5600 5600 5600 5600 5601 5601 5602 5603 5604 5605 5605 5606 5606 5606 5607 5608 5608 5609 5610 5610 5611 5612 5612 5613 5614 5615 5616 5617 5618 5618 5619 5619 5619 5620 5621 5622 5622 5623 5624
5594 5593 5593 5593 5592 5592 5591 5590 5589 5589 5588 5587 5587 5586 5586 5586 5585 5585 5585 5586 5587 5588 5588 5587 5587 5588 5588 5588 5588 5588 5589 5589 5589 5590 5591 5591 5591 5591 5591 5591 5592 5592 5592 5593 5593 5593 5594 5594 5594 5594 5594 5594 5595 5595 5596 5597 5598 5599 5600 5600 5600 5601 5601 5602 5603 5604 5605 5605 5606 5607 5608 5608 5609 5611 5612 5613 5613 5614 5615 5615 5616 5616 5617 5618 5619 5620
5588 5587 5586 5586 5585 5585 5584 5583 5582 5581 5581 5580 5579 5578 5578 5578 5578 5578 5578 5578 5579 5580 5581 5581 5581 5581 5581 5581 5581 5581 5582 5582 5583 5583 5584 5584 5585 5585 5585 5585 5585 5585 5586 5586 5587 5587 5587 5587 5587 5587 5587 5588 5588 5588 5589 5590 5592 5593 5593 5594 5594 5595 5595 5596 5597 5598 5598 5599 5600 5601 5602 5603 5604 5605 5606 5607 5608 5609 5610 5610 5611 5612 5613 5613 5614 5615
5581 5580 5579 5579 5578 5578 5577 5576 5574 5574 5573 5573 5572 5572 5571 5571 5571 5571 5571 5571 5572 5573 5573 5573 5573 5574 5574 5574 5574 5573 5574 5574 5575 5576 5577 5578 5578 5578 5578 5579 5579 5579 5580 5580 5580 5580 5580 5581 5581 5580 5581 5581 5581 5581 5582 5583 5584 5585 5587 5587 5588 5588 5589 5589 5590 5591 5592 5593 5594 5595 5596 5597 5598 5599 5600 5602 5603 5604 5605 5605 5606 5607 5608 5609 5610 5611
5574 5573 5572 5572 5571 5571 5570 5568 5568 5567 5566 5566 5565 5565 5564 5564 5564 5564 5564 5564 5564 5565 5566 5566 5566 5566 5567 5567 5567 5566 5566 5566 5567 5568 5570 5570 5571 5571 5571 5571 5572 5573 5574 5574 5574 5573 5573 5574 5574 5573 5574 5574 5574 5574 5574 5575 5577 5578 5579 5580 5581 5582 5583 5583 5584 5585 5586 5587 5588 5589 5590 5591 5592 5593 5595 5596 5597 5598 5599 5600 5601 5602 5603 5605 5606 5607
5567 5566 5565 5565 5564 5564 5563 5562 5561 5560 5559 5559 5558 5558 5557 5556 5556 5556 5556 5556 5556 5556 5557 5557 5558 5558 5559 5559 5559 5558 5558 5557 5558 5559 5562 5563 5563 5563 5563 5563 5563 5564 5566 5568 5567 5567 5567 5567 5567 5567 5567 5567 5567 5567 5567 5567 5568 5570 5571 5573 5574 5575 5576 5576 5577 5578 5579 5580 5581 5583 5584 5585 5586 5587 5588 5590 5591 5593 5593 5594 5596 5597 5598 5600 5602 5603
5561 5560 5559 5558 5558 5557 5557 5555 5554 5553 5552 5552 5551 5550 5550 5549 5548 5548 5548 5548 5548 5548 5548 5548 5549 5550 5551 5551 5551 5550 5549 5549 5549 5550 5552 5555 5555 5554 5554 5555 5555 5555 5558 5560 5560 5560 5559 5560 5560 5560 5560 5561 5560 5560 5559 5559 5560 5561 5563 5564 5566 5568 5569 5570 5570 5571 5572 5573 5574 5576 5577 5578 5579 5581 5582 5583 5585 5587 5588 5589 5590 5591 5593 5595 5596 5597
5554 5554 5553 5552 5551 5550 5550 5549 5548 5546 5545 5544 5543 5543 5542 5541 5541 5540 5540 5539 5539 5539 5539 5539 5540 5541 5542 5543 5543 5541 5540 5541 5540 5540 5542 5545 5546 5546 5546 5546 5546 5546 5548 5551 5552 5552 5552 5552 5552 5552 5553 5553 5553 5553 5553 5552 5552 5553 5554 5556 5558 5560 5561 5562 5563 5564 5565 5566 5567 5568 5570 5572 5573 5574 5576 5577 5579 5581 5582 5583 5584 5586 5588 5589 5590 5591
5548 5547 5546 5545 5543 5543 5542 5541 5540 5538 5537 5536 5534 5534 5533 5533 5532 5532 5531 5530 5529 5530 5530 5530 5531 5531 5533 5534 5533 5532 5531 5532 5532 5531 5531 5534 5537 5537 5537 5536 5536 5537 5538 5541 5543 5543 5543 5543 5543 5544 5545 5546 5546 5546 5545 5545 5544 5544 5545 5546 5548 5550 5553 5554 5555 5556 5557 5558 5559 5561 5563 5564 5566 5568 5569 5570 5572 5574 5576 5577 5578 5580 5582 5583 5584 5586
5540 5539 5538 5537 5536 5534 5533 5533 5532 5530 5529 5527 5526 5525 5525 5523 5523 5523 5522 5521 5520 5520 5520 5520 5521 5522 5522 5524 5524 5523 5521 5522 5522 5521 5520 5523 5526 5528 5528 5527 5527 5527 5528 5531 5533 5533 5533 5533 5533 5534 5536 5537 5538 5538 5538 5538 5537 5536 5536 5537 5538 5540 5543 5545 5547 5548 5549 5550 5552 5553 5555 5557 5558 5560 5562 5563 5565 5567 5569 5571 5572 5573 5575 5577 5578 5580
5532 5532 5530 5529 5528 5526 5525 5523 5523 5522 5520 5518 5517 5516 5515 5514 5514 5513 5512 5511 5511 5511 5510 5510 5511 5512 5512 5514 5514 5513 5511 5511 5512 5510 5509 5511 5515 5518 5518 5517 5517 5517 5518 5520 5523 5524 5523 5523 5523 5524 5526 5527 5528 5528 5529 5529 5529 5528 5528 5528 5528 5530 5532 5535 5537 5539 5541 5542 5543 5545 5547 5548 5550 5552 5554 5556 5557 5559 5562 5564 5565 5567 5569 5570 5572 5574
5524 5523 5521 5520 5519 5518 5516 5515 5514 5513 5511 5509 5508 5507 5505 5504 5504 5504 5503 5501 5501 5501 5500 5500 5500 5501 5502 5503 5503 5503 5501 5501 5500 5499 5498 5499 5503 5506 5507 5507 5506 5506 5507 5509 5512 5513 5513 5513 5513 5514 5516 5517 5517 5518 5518 5520 5520 5520 5520 5519 5519 5519 5521 5524 5527 5530 5532 5533 5535 5536 5538 5540 5542 5544 5546 5548 5550 5552 5553 5556 5558 5560 5562 5564 5565 5567
5515 5514 5512 5511 5510 5508 5507 5506 5504 5503 5501 5500 5499 5498 5496 5495 5495 5494 5493 5492 5491 5491 5490 5490 5490 5490 5491 5492 5492 5492 5490 5489 5488 5487 5487 5488 5490 5493 5495 5495 5495 5495 5495 5497 5500 5502 5503 5503 5503 5503 5505 5506 5506 5506 5507 5508 5510 5511 5511 5511 5510 5510 5511 5513 5515 5518 5522 5524 5526 5527 5529 5531 5533 5535 5537 5539 5541 5543 5545 5548 5551 5553 5555 5557 5559 5561
5505 5504 5503 5502 5500 5499 5497 5496 5494 5493 5491 5490 5489 5487 5486 5485 5484 5483 5482 5481 5481 5480 5479 5479 5478 5479 5479 5480 5481 5481 5480 5477 5475 5475 5475 5475 5476 5479 5482 5483 5483 5483 5483 5484 5487 5489 5491 5491 5491 5493 5494 5495 5495 5494 5495 5496 5498 5499 5501 5501 5502 5501 5501 5502 5504 5507 5510 5513 5515 5518 5519 5521 5523 5525 5528 5530 5533 5535 5537 5539 5542 5544 5547 5549 5552 5554
5496 5495 5493 5492 5491 5489 5488 5486 5484 5483 5481 5480 5478 5477 5475 5473 5473 5472 5471 5470 5469 5468 5467 5467 5467 5467 5468 5468 5469 5470 5468 5465 5463 5463 5463 5462 5462 5465 5468 5470 5470 5471 5471 5471 5473 5476 5479 5479 5479 5480 5483 5484 5484 5483 5483 5483 5485 5487 5488 5490 5491 5492 5492 5492 5493 5495 5498 5501 5504 5507 5509 5511 5513 5515 5518 5521 5523 5526 5528 5531 5533 5536 5539 5542 5544 5546
5486 5485 5484 5483 5481 5479 5478 5476 5474 5473 5471 5469 5468 5466 5464 5462 5461 5460 5459 5458 5457 5456 5455 5454 5454 5454 5455 5456 5458 5458 5456 5453 5452 5452 5451 5449 5449 5451 5454 5455 5456 5458 5459 5458 5458 5461 5465 5467 5467 5468 5470 5473 5473 5472 5471 5471 5472 5473 5475 5477 5479 5481 5482 5483 5483 5484 5486 5488 5492 5495 5498 5501 5503 5505 5508 5511 5514 5517 5520 5523 5525 5528 5531 5533 5536 5539
5477 5475 5474 5472 5471 5469 5467 5465 5464 5462 5460 5458 5457 5454 5452 5450 5450 5449 5448 5446 5444 5443 5444 5443 5441 5441 5442 5444 5445 5446 5444 5443 5442 5439 5437 5436 5437 5438 5439 5439 5441 5444 5446 5444 5443 5446 5451 5454 5454 5454 5456 5459 5461 5461 5460 5460 5459 5459 5460 5463 5466 5468 5470 5472 5473 5473 5474 5476 5479 5482 5486 5489 5492 5495 5498 5500 5503 5507 5510 5514 5517 5520 5522 5525 5528 5531
5467 5465 5463 5462 5460 5458 5456 5455 5453 5451 5449 5447 5445 5443 5440 5438 5437 5437 5436 5433 5431 5431 5432 5431 5428 5428 5430 5432 5432 5432 5432 5433 5431 5428 5423 5422 5423 5425 5424 5423 5427 5431 5433 5430 5429 5431 5436 5440 5441 5441 5442 5445 5447 5448 5448 5448 5447 5447 5447 5448 5451 5454 5457 5460 5462 5463 5463 5464 5466 5469 5473 5477 5481 5484 5487 5490 5493 5497 5500 5504 5508 5511 5514 5517 5520 5523
5458 5456 5454 5452 5449 5447 5445 5443 5442 5440 5438 5436 5434 5431 5428 5425 5424 5424 5423 5420 5418 5418 5419 5418 5416 5416 5417 5418 5418 5418 5419 5420 5419 5415 5411 5409 5410 5410 5408 5409 5413 5418 5418 5415 5415 5418 5422 5424 5425 5427 5429 5431 5432 5433 5434 5435 5435 5434 5434 5435 5437 5439 5443 5446 5449 5451 5452 5453 5454 5457 5460 5464 5468 5473 5476 5479 5483 5487 5490 5494 5499 5503 5506 5509 5512 5515
5448 5446 5444 5441 5438 5436 5434 5432 5430 5428 5426 5425 5423 5420 5417 5414 5412 5411 5410 5408 5406 5405 5405 5405 5403 5403 5403 5404 5404 5405 5406 5407 5406 5403 5400 5399 5398 5396 5393 5395 5401 5405 5403 5400 5401 5405 5408 5409 5410 5413 5417 5417 5417 5417 5419 5421 5423 5422 5422 5422 5423 5426 5429 5432 5436 5438 5440 5442 5443 5444 5448 5452 5456 5461 5465 5469 5473 5476 5481 5485 5490 5494 5498 5501 5504 5508
5438 5435 5433 5431 5428 5425 5422 5420 5418 5416 5414 5413 5411 5408 5406 5403 5401 5398 5397 5395 5393 5392 5392 5391 5390 5389 5388 5389 5391 5393 5394 5394 5393 5390 5388 5388 5386 5383 5379 5382 5388 5392 5389 5385 5387 5392 5396 5395 5396 5399 5403 5404 5403 5402 5403 5407 5410 5410 5409 5409 5410 5413 5415 5418 5422 5425 5428 5430 5431 5433 5436 5440 5444 5449 5454 5458 5463 5467 5471 5475 5480 5485 5490 5493 5497 5500
5426 5424 5422 5419 5417 5413 5411 5408 5406 5404 5402 5400 5398 5396 5394 5392 5389 5387 5384 5382 5381 5379 5379 5378 5378 5376 5375 5375 5377 5380 5382 5383 5381 5378 5375 5375 5375 5372 5368 5370 5376 5380 5378 5373 5374 5378 5383 5383 5383 5385 5389 5392 5391 5390 5390 5393 5397 5398 5397 5397 5398 5401 5403 5406 5409 5412 5415 5418 5420 5422 5425 5429 5433 5438 5443 5448 5453 5457 5462 5467 5471 5476 5482 5486 5489 5493
5414 5413 5410 5408 5405 5402 5399 5396 5393 5391 5390 5388 5386 5384 5383 5380 5378 5376 5373 5371 5369 5368 5367 5366 5365 5364 5363 5363 5364 5367 5370 5371 5370 5366 5362 5362 5362 5361 5359 5360 5364 5368 5367 5363 5363 5365 5369 5371 5373 5374 5377 5379 5379 5379 5379 5381 5384 5385 5386 5386 5388 5390 5392 5394 5397 5400 5403 5406 5408 5412 5415 5418 5423 5428 5433 5438 5443 5448 5453 5458 5463 5468 5473 5478 5482 5486
5403 5401 5398 5396 5393 5390 5387 5384 5382 5380 5378 5377 5375 5373 5371 5369 5367 5365 5362 5360 5358 5357 5356 5355 5354 5354 5353 5353 5353 5355 5357 5359 5358 5355 5351 5350 5350 5350 5349 5351 5354 5356 5355 5354 5354 5355 5357 5360 5363 5364 5366 5368 5368 5369 5370 5372 5373 5374 5375 5376 5378 5380 5382 5384 5386 5389 5391 5394 5398 5402 5405 5409 5413 5418 5423 5428 5434 5439 5444 5450 5455 5460 5465 5471 5475 5480
5391 5389 5387 5384 5382 5379 5376 5373 5370 5368 5367 5366 5364 5361 5359 5357 5356 5353 5351 5349 5348 5347 5346 5345 5344 5344 5344 5344 5344 5345 5347 5348 5346 5344 5342 5341 5340 5340 5340 5343 5344 5346 5346 5346 5346 5346 5348 5350 5353 5354 5356 5358 5359 5361 5362 5363 5363 5364 5365 5367 5369 5371 5373 5374 5376 5378 5381 5384 5388 5392 5396 5399 5403 5408 5413 5419 5425 5430 5436 5442 5447 5453 5458 5463 5468 5473
5379 5378 5375 5372 5369 5367 5365 5362 5360 5358 5356 5355 5353 5350 5348 5347 5345 5343 5342 5340 5339 5338 5337 5336 5335 5334 5334 5335 5336 5337 5338 5337 5336 5335 5333 5332 5331 5331 5333 5334 5335 5337 5338 5338 5338 5338 5340 5342 5343 5345 5347 5349 5351 5353 5354 5355 5356 5357 5358 5359 5361 5363 5364 5366 5368 5369 5372 5375 5379 5383 5386 5390 5394 5399 5404 5409 5415 5421 5427 5433 5439 5445 5450 5456 5461 5466
5368 5367 5364 5360 5358 5355 5354 5352 5350 5348 5346 5346 5344 5341 5338 5336 5335 5334 5332 5331 5330 5329 5328 5328 5327 5327 5326 5327 5327 5328 5329 5329 5328 5327 5326 5324 5323 5324 5326 5327 5328 5329 5330 5330 5330 5330 5332 5334 5335 5337 5340 5342 5344 5346 5347 5348 5349 5350 5351 5352 5354 5355 5357 5358 5360 5362 5364 5367 5370 5373 5377 5381 5385 5389 5394 5400 5406 5412 5418 5424 5431 5437 5442 5448 5454 5459
5356 5354 5353 5349 5347 5345 5344 5343 5340 5338 5336 5335 5333 5331 5328 5327 5326 5325 5324 5323 5322 5321 5320 5320 5319 5319 5319 5319 5319 5320 5321 5321 5321 5320 5318 5317 5317 5317 5319 5320 5321 5322 5323 5323 5324 5324 5326 5328 5329 5331 5333 5335 5337 5339 5341 5342 5343 5344 5345 5346 5347 5348 5350 5351 5353 5355 5357 5359 5362 5365 5369 5372 5376 5381 5386 5391 5397 5403 5409 5416 5422 5428 5435 5441 5447 5453
5344 5343 5341 5339 5336 5334 5333 5332 5330 5328 5326 5325 5324 5323 5321 5319 5318 5317 5316 5315 5314 5314 5313 5313 5313 5313 5313 5313 5313 5314 5314 5314 5314 5313 5312 5312 5311 5311 5313 5314 5315 5316 5317 5318 5318 5319 5320 5322 5323 5325 5327 5329 5331 5333 5335 5336 5337 5338 5339 5340 5341 5343 5344 5345 5346 5348 5350 5352 5355 5358 5361 5364 5368 5372 5377 5383 5388 5395 5401 5408 5414 5421 5427 5434 5441 5448
5335 5333 5331 5329 5327 5325 5324 5323 5321 5319 5318 5318 5317 5315 5314 5313 5312 5310 5309 5308 5308 5308 5307 5307 5307 5307 5307 5308 5308 5308 5308 5308 5308 5308 5307 5307 5307 5307 5308 5309 5310 5311 5312 5312 5313 5314 5315 5316 5318 5319 5322 5323 5325 5327 5329 5330 5332 5332 5333 5334 5336 5337 5338 5339 5340 5342 5343 5346 5348 5351 5354 5357 5361 5365 5369 5375 5381 5387 5393 5400 5406 5413 5419 5427 5434 5441
5325 5324 5323 5320 5318 5317 5316 5314 5313 5312 5311 5311 5310 5309 5308 5307 5306 5305 5304 5303 5303 5303 5302 5302 5302 5302 5303 5303 5304 5304 5304 5304 5304 5303 5303 5303 5303 5303 5303 5304 5305 5306 5307 5308 5308 5309 5310 5311 5312 5313 5316 5318 5319 5321 5323 5324 5326 5327 5328 5328 5330 5331 5333 5334 5335 5336 5338 5340 5342 5345 5348 5351 5354 5358 5362 5367 5373 5379 5386 5393 5400 5406 5412 5419 5427 5433
5317 5316 5315 5313 5312 5310 5309 5308 5307 5306 5305 5305 5304 5303 5303 5302 5301 5300 5300 5299 5299 5299 5298 5298 5298 5298 5299 5300 5301 5301 5301 5301 5300 5300 5299 5299 5299 5299 5299 5299 5300 5301 5301 5302 5303 5303 5304 5305 5307 5308 5310 5312 5313 5314 5316 5318 5320 5321 5322 5323 5324 5326 5328 5328 5329 5331 5332 5334 5336 5339 5342 5345 5348 5352 5356 5361 5367 5373 5379 5386 5393 5399 5405 5413 5420 5427
5311 5309 5308 5307 5306 5305 5304 5303 5302 5301 5301 5300 5300 5299 5298 5298 5297 5297 5296 5296 5296 5296 5295 5295 5295 5296 5297 5297 5298 5298 5298 5297 5297 5296 5296 5296 5295 5295 5295 5295 5295 5295 5296 5297 5297 5297 5298 5300 5301 5302 5303 5305 5307 5308 5309 5311 5313 5315 5316 5317 5318 5320 5322 5323 5324 5326 5327 5328 5331 5333 5337 5339 5342 5346 5350 5355 5360 5367 5373 5380 5386 5392 5399 5406 5413 5421
5306 5305 5303 5303 5302 5301 5300 5300 5299 5298 5298 5297 5297 5296 5295 5294 5293 5293 5293 5293 5293 5293 5293 5293 5293 5293 5294 5294 5294 5294 5294 5293 5293 5292 5292 5291 5291 5291 5290 5290 5290 5290 5291 5292 5291 5291 5292 5293 5295 5296 5298 5298 5299 5300 5302 5305 5307 5309 5310 5311 5313 5314 5316 5318 5319 5321 5322 5323 5326 5328 5331 5334 5337 5341 5344 5349 5355 5361 5368 5374 5380 5386 5393 5400 5408 5415
5303 5302 5301 5300 5299 5298 5298 5297 5296 5296 5295 5294 5294 5293 5292 5291 5290 5290 5290 5290 5290 5290 5290 5290 5290 5290 5290 5290 5290 5290 5289 5289 5288 5288 5287 5287 5286 5286 5285 5285 5284 5284 5284 5285 5285 5285 5286 5287 5288 5289 5291 5291 5292 5293 5295 5298 5300 5302 5304 5305 5307 5308 5310 5313 5314 5315 5317 5318 5321 5324 5326 5329 5332 5336 5339 5344 5349 5355 5362 5368 5375 5381 5388 5395 5402 5410
5300 5299 5298 5298 5297 5296 5295 5294 5294 5293 5293 5292 5291 5290 5289 5288 5287 5287 5287 5287 5287 5287 5287 5287 5287 5287 5286 5286 5286 5285 5285 5284 5284 5283 5283 5282 5281 5281 5280 5280 5279 5279 5279 5278 5278 5279 5280 5280 5281 5282 5283 5283 5284 5286 5288 5291 5293 5295 5297 5299 5300 5303 5305 5307 5309 5310 5312 5314 5317 5319 5322 5324 5328 5331 5335 5339 5344 5350 5357 5363 5369 5376 5382 5389 5397 5405
5298 5297 5296 5295 5295 5294 5293 5292 5291 5291 5290 5289 5288 5287 5286 5285 5285 5284 5284 5284 5284 5283 5283 5283 5283 5283 5282 5282 5282 5281 5281 5280 5280 5279 5278 5278 5277 5276 5275 5274 5274 5273 5273 5273 5273 5273 5273 5274 5274 5275 5275 5276 5277 5278 5280 5283 5286 5288 5290 5292 5294 5296 5299 5301 5303 5305 5308 5310 5313 5316 5318 5321 5324 5327 5330 5335 5340 5346 5352 5358 5364 5370 5377 5384 5392 5400
5296 5295 5294 5293 5292 5292 5290 5289 5289 5288 5287 5286 5285 5284 5283 5283 5282 5282 5281 5281 5281 5280 5280 5279 5279 5278 5278 5278 5278 5277 5277 5276 5276 5275 5274 5274 5273 5271 5270 5269 5269 5268 5268 5267 5267 5267 5267 5267 5267 5268 5268 5268 5269 5271 5273 5275 5278 5280 5283 5285 5288 5290 5293 5296 5298 5301 5304 5307 5310 5313 5315 5318 5321 5324 5327 5332 5337 5343 5348 5354 5360 5366 5373 5381 5388 5395
5294 5293 5292 5291 5290 5289 5288 5287 5286 5285 5284 5283 5282 5281 5280 5280 5279 5279 5278 5278 5278 5277 5277 5276 5276 5275 5275 5274 5274 5273 5273 5273 5272 5272 5271 5270 5269 5268 5267 5265 5264 5263 5263 5262 5262 5261 5261 5261 5260 5260 5261 5262 5263 5265 5266 5268 5271 5273 5276 5279 5282 5285 5288 5291 5294 5297 5300 5303 5307 5310 5314 5317 5320 5322 5325 5329 5333 5338 5344 5350 5356 5363 5369 5377 5384 5391
5292 5290 5289 5288 5288 5287 5285 5284 5283 5283 5281 5281 5280 5279 5278 5277 5277 5276 5276 5275 5275 5274 5273 5273 5273 5272 5272 5271 5271 5270 5269 5269 5268 5268 5267 5266 5265 5264 5263 5262 5261 5260 5258 5258 5257 5257 5256 5255 5255 5254 5255 5256 5258 5260 5262 5263 5265 5268 5271 5273 5277 5280 5284 5287 5290 5294 5297 5301 5305 5308 5313 5316 5319 5321 5323 5327 5331 5336 5341 5347 5353 5359 5366 5373 5380 5388
5289 5288 5287 5286 5285 5284 5283 5282 5281 5280 5279 5278 5277 5276 5276 5275 5274 5273 5273 5273 5272 5271 5271 5271 5270 5270 5269 5268 5268 5267 5266 5265 5265 5264 5263 5262 5261 5260 5258 5257 5256 5255 5254 5253 5253 5252 5251 5250 5250 5250 5251 5252 5254 5256 5258 5260 5262 5264 5266 5269 5273 5276 5280 5284 5287 5291 5295 5298 5303 5307 5311 5314 5317 5319 5322 5325 5329 5334 5339 5344 5350 5356 5363 5369 5377 5384